CW2099 Weather Reports


Display with metric or nautical units.
time (UTC)temp
F
wind
direction
speed
MPH
gust
MPH
rain 1hr
in
rain 24hr
in
rain mn
in
humidity
%
barometer
mb
20260503221535 67 137 1.0 8.0 0.00 0.00 0.00 17 999.8
20260503214531 67 144 2.0 11.0 0.00 0.00 0.00 19 999.7
20260503213030 68 147 2.0 9.0 0.00 0.00 0.00 20 999.6
20260503211525 67 46 3.0 10.0 0.00 0.00 0.00 22 999.8
20260503210123 66 136 1.0 4.0 0.00 0.00 0.00 25 1000.1
20260503204524 65 57 1.0 5.0 0.00 0.00 0.00 27 1000.2
20260503203021 64 128 1.0 4.0 0.00 0.00 0.00 27 1000.5
20260503201519 64 50 2.0 11.0 0.00 0.00 0.00 26 1000.6
20260503200121 65 67 4.0 9.0 0.00 0.00 0.00 23 1000.7
20260503194522 66 78 5.0 10.0 0.00 0.00 0.00 24 1000.8
20260503193015 66 137 1.0 10.0 0.00 0.00 0.00 25 1000.9
20260503191513 64 104 5.0 12.0 0.00 0.00 0.00 26 1001.2
20260503190113 65 46 2.0 14.0 0.00 0.00 0.00 26 1001.4
20260503184515 64 51 3.0 11.0 0.00 0.00 0.00 28 1001.5
20260503183013 64 51 8.0 16.0 0.00 0.00 0.00 27 1001.8
20260503181506 64 81 2.0 10.0 0.00 0.00 0.00 28 1002.1
20260503180109 64 71 1.0 6.0 0.00 0.00 0.00 28 1002.2
20260503174602 63 80 2.0 5.0 0.00 0.00 0.00 29 1002.3
20260503174502 63 76 1.0 5.0 0.00 0.00 0.00 29 1002.3
20260503173110 64 147 2.0 6.0 0.00 0.00 0.00 28 1002.5
20260503171555 63 37 1.0 9.0 0.00 0.00 0.00 30 1002.6
20260503081545 46 34 0.0 2.0 0.00 0.00 0.00 46 1007.7
20260503080150 47 34 0.0 1.0 0.00 0.00 0.00 43 1007.6
20260503071601 47 46 0.0 3.0 0.00 0.00 0.00 44 1008.0
20260503054534 44 78 0.0 0.0 0.00 0.00 0.00 49 1009.1
20260503053025 44 78 0.0 1.0 0.00 0.00 0.00 51 1009.4
20260503051523 43 78 0.0 1.0 0.00 0.00 0.00 50 1009.6
20260503050033 43 78 0.0 2.0 0.00 0.00 0.00 49 1009.6
20260503044520 42 78 0.0 0.0 0.00 0.00 0.00 45 1009.8
20260503043017 42 78 0.0 0.0 0.00 0.00 0.00 43 1010.0
20260503041516 43 78 0.0 0.0 0.00 0.00 0.00 46 1010.2
20260503040014 43 78 0.0 0.0 0.00 0.00 0.00 35 1010.2
20260503034514 44 78 0.0 2.0 0.00 0.00 0.00 34 1010.3
20260503033011 44 78 0.0 0.0 0.00 0.00 0.00 34 1010.5
20260503031511 45 78 0.0 0.0 0.00 0.00 0.00 32 1010.6
20260503030009 45 78 0.0 2.0 0.00 0.00 0.00 32 1010.9
20260503024508 46 78 0.0 0.0 0.00 0.00 0.00 31 1011.0
20260503023007 46 78 0.0 1.0 0.00 0.00 0.00 29 1011.1
20260503021513 47 78 0.0 0.0 0.00 0.00 0.00 29 1011.1
20260503020006 48 78 0.0 0.0 0.00 0.00 0.00 28 1011.2
20260503014506 49 78 0.0 0.0 0.00 0.00 0.00 27 1011.2
20260503013006 50 78 0.0 1.0 0.00 0.00 0.00 24 1011.2
20260503011506 51 78 0.0 1.0 0.00 0.00 0.00 22 1011.2
20260503010005 52 78 0.0 0.0 0.00 0.00 0.00 21 1011.2
20260503004504 53 78 0.0 1.0 0.00 0.00 0.00 21 1011.2
20260503003004 54 78 0.0 1.0 0.00 0.00 0.00 20 1011.4
20260503001506 54 65 1.0 3.0 0.00 0.00 0.00 18 1011.2
20260503000004 55 173 0.0 3.0 0.00 0.00 0.00 19 1011.4
20260502234502 56 124 1.0 4.0 0.00 0.00 0.00 17 1011.4
20260502233001 56 46 1.0 5.0 0.00 0.00 0.00 16 1011.5
20260502231502 56 213 2.0 4.0 0.00 0.00 0.00 17 1011.8
20260502230100 56 164 0.0 7.0 0.00 0.00 0.00 16 1011.9
20260502224604 56 113 1.0 5.0 0.00 0.00 0.00 15 1012.1
20260502223057 57 89 2.0 6.0 0.00 0.00 0.00 15 1012.2